Regional Weather Roundup
Issued by NWS

Home | Current Version | Previous Version | Graphics & Text | Print | Product List | Glossary On
Versions: 1 2 3 4 5 6 7 8 9 10 11 12 13 14 15 16 17 18 19 20 21 22 23 24 25 26 27 28 29 30 31 32 33 34 35 36 37 38 39 40 41 42 43 44 45 46 47 48 49 50
000
ASUS43 KFSD 280802
RWRSD

WEATHER ROUNDUP FOR SOUTH DAKOTA
NATIONAL WEATHER SERVICE SIOUX FALLS SD
200 AM CST FRI NOV 28 2014

NOTE: "FAIR" INDICATES FEW OR NO CLOUDS BELOW 12,000 FEET WITH NO
SIGNIFICANT WEATHER AND/OR OBSTRUCTIONS TO VISIBILITY.


SDZ001>005-009-010-012>017-280900-
NORTHWEST AND NORTH CENTRAL SOUTH DAKOTA

CITY           SKY/WX    TMP DP  RH WIND       PRES   REMARKS
BUFFALO          N/A     34  26  72 VRB3      29.67R
FAITH            N/A     25  19  78 S9        29.74F WCI  15
MOBRIDGE       CLEAR     12   8  84 E10       29.80F WCI  -1
$$

SDZ012>016-024>037-041>051-057-063-072>074-280900-
SOUTHWEST AND SOUTH CENTRAL SOUTH DAKOTA

CITY           SKY/WX    TMP DP  RH WIND       PRES   REMARKS
RAPID CTY ARPT PTCLDY    37  26  64 E6        29.78F
PIERRE         CLOUDY    20  17  88 CALM      29.79F
CUSTER         MOCLDY    38  25  59 W6        29.87F
ELLSWORTH AFB  PTCLDY    43  28  54 SW3       29.77F
PHILIP         MOCLDY    23  19  85 CALM      29.78F
PINE RIDGE     PTCLDY    35  28  75 CALM      29.86F
WINNER         FAIR      40  27  59 SW10      29.81F
$$

SDZ004>011-016>023-039-040-280900-
NORTHEAST SOUTH DAKOTA

CITY           SKY/WX    TMP DP  RH WIND       PRES   REMARKS
ABERDEEN       CLEAR     11   5  77 E8        29.90F WCI  -1
WATERTOWN      PTCLDY    13   8  81 SE8       29.90F WCI   2
SISSETON         N/A      7   3  84 S14       29.99F WCI -10
$$

SDZ017-020-022-023-036>040-048>070-280900-
SOUTHEAST SOUTH DAKOTA

CITY           SKY/WX    TMP DP  RH WIND       PRES   REMARKS
SIOUX FALLS    CLEAR     17  12  80 S8        29.94F WCI   7
HURON          PTCLDY    19  13  77 SE10      29.86F WCI   7
MITCHELL       CLEAR     22  16  78 S15       29.87F WCI   9
YANKTON        CLEAR     19  16  86 SE10      29.93F WCI   8
$$

ABBREVIATIONS USED IN REMARKS
   TC - TEMPERATURE IN CELSIUS
  WCI - WIND CHILL INDEX
   HX - HEAT INDEX
  VSB - VISIBILITY




USA.gov is the U.S. government's official web portal to all federal, state and local government web resources and services.